This demonstration page uses our WeatherBlox Daily Observations layout. Learn more.

Left ArrowRight Arrow

36.19886, -115.1175

Hourly Observations for February 21, 2017

Temp ( °F °C ) Dew Point ( °F °C ) Humidity (%) Winds ( mph kmh ) Pressure ( in mb ) Visibility ( mi km ) Precip ( " mm )
12:53 am 00:53 Clear 56 13.3 48 8.9 75 75 VRB 7 11 30.23 1024 10 16 0.00 0.00
1:53 am 01:53 Clear 56 13.3 47 8.3 72 72 NE 6 9 30.23 1024 10 16 0.00 0.00
2:53 am 02:53 Clear 53 11.7 47 8.3 80 80 W 3 6 30.22 1024 10 16 0.00 0.00
3:53 am 03:53 Clear 53 11.7 48 8.9 83 83 E 8 13 30.23 1024 10 16 0.00 0.00
4:53 am 04:53 Clear 53 11.7 48 8.9 83 83 ENE 7 11 30.24 1024 10 16 0.00 0.00
5:53 am 05:53 Clear 52 11.1 48 8.9 86 86 ENE 7 11 30.24 1024 10 16 0.00 0.00
6:53 am 06:53 Sunny 52 11.1 48 8.9 86 86 ENE 8 13 30.26 1025 10 16 0.00 0.00
7:53 am 07:53 Sunny 54 12.2 49 9.4 83 83 ENE 7 11 30.26 1025 10 16 0.00 0.00
8:53 am 08:53 Sunny 58 14.4 49 9.4 72 72 Calm 30.26 1025 10 16 0.00 0.00
9:53 am 09:53 Sunny 60 15.6 47 8.3 62 62 WNW 5 7 30.26 1025 10 16 0.00 0.00
10:53 am 10:53 Sunny 62 16.7 48 8.9 60 60 SE 14 22 30.25 1025 10 16 0.00 0.00
11:53 am 11:53 Sunny 67 19.4 35 1.7 31 31 S 16 26 30.22 1023 10 16 0.00 0.00
12:53 pm 12:53 Sunny 67 19.4 37 2.8 33 33 SSW 10 17 30.18 1022 10 16 0.00 0.00
1:53 pm 13:53 Sunny 68 20 38 3.3 33 33 SSW 16 26 30.15 1021 10 16 0.00 0.00
2:53 pm 14:53 Sunny 68 20 35 1.7 30 30 SSW 15 24 30.13 1020 10 16 0.00 0.00
3:53 pm 15:53 Sunny 68 20 35 1.7 30 30 S 14 22 30.11 1020 10 16 0.00 0.00
4:53 pm 16:53 Sunny 66 18.9 39 3.9 37 37 S 15 24 30.11 1020 10 16 0.00 0.00
5:53 pm 17:53 Clear 64 17.8 40 4.4 41 41 S 20 31 30.10 1019 10 16 0.00 0.00
6:53 pm 18:53 Clear 63 17.2 40 4.4 43 43 S 24 39 30.07 1018 10 16 0.00 0.00
7:53 pm 19:53 Clear 63 17.2 39 3.9 41 41 S 28 44 30.05 1018 10 16 0.00 0.00
8:53 pm 20:53 Clear 63 17.2 38 3.3 40 40 SSW 29 46 30.02 1017 10 16 0.00 0.00
9:53 pm 21:53 Clear 63 17.2 39 3.9 41 41 SSW 30 48 30.02 1017 10 16 0.00 0.00
10:53 pm 22:53 Clear 63 17.2 35 1.7 35 35 SW 29 46 30.01 1016 10 16 0.00 0.00
11:53 pm 23:53 Clear 63 17.2 30 -1.1 29 29 SSW 28 44 29.99 1016 10 16 0.00 0.00

Powered by AerisWeather